www.pogodaiklimat.ru

Погода и климат >> Архив погоды >> Аргентина >> Лас-Ломитас


ПОГОДА в Лас-Ломитасе

  • Прогноз погоды в Лас-Ломитасе
  • Монитор погоды в Лас-Ломитасе

АРХИВ ПОГОДЫ в Лас-Ломитасе

Время (UTC), дата Ветер
(напр.,м/с)
 
Видим.   Явления Облачность Т
(С)
Тd
(С)
f
(%)
Тe
(С)
Тes
(С)
Комфортность P
(гПа)
Po
(гПа)
Тmin
(С)
Tmax
(С)
R
(мм)
R24
(мм)
S
(см)
09 11.07 В 2 20 км ясно +18.8 +12.8 68 +20 +20 1010.2 995.2
12 11.07 В 3 20 км ясно +19.7 +13.3 67 +22 +23 комфорт 1011.5 996.4 +18.0 +22.4
15 11.07 СВ 4 20 км ясно +28.0 +14.6 44 +30 +37 жарко 1009.5 994.6
18 11.07 СВ 3 20 км 4/4 1500 м
[Cu hum]
+30.2 +14.2 38 +32 +36 жарко 1007.5 992.6
21 11.07 СВ 2 20 км 3/0
[Ac trans]
+29.0 +14.7 42 +31 +31 жарко 1006.3 991.4
00 12.07 штиль 0 20 км ясно +24.4 +14.4 54 +27 +27 жарко 1006.8 991.8 +19.7 +32.0
09 12.07 штиль 0 20 км ясно +19.2 +14.4 74 +20 +20 1009.0 994.1
12 12.07 В 1 20 км 3/0
[Ac trans]
+20.4 +20.1 98 +26 +27 душно 1011.2 996.1 +18.5 +24.4
15 12.07 СВ 1 20 км 6/0
[Ac As]
+25.7 +16.6 57 +29 +36 душно 1011.5 996.6
18 12.07 СЗ 2 20 км 6/0
[Ac As]
+29.2 +17.0 48 +33 +37 очень
душно
1009.7 994.9
21 12.07 штиль 0 20 км 8/0
[Ac trans]
+26.6 +19.6 65 +32 +32 очень
душно
1009.7 994.8
00 13.07 штиль 0 20 км 5/0
[Ac trans]
+22.2 +18.4 79 +27 +27 душно 1010.9 995.8 +20.4 +29.5
09 13.07 ЮЗ 2 20 км 8/0
[Ac trans]
+17.0 +14.2 84 +17 +17 1012.3 997.2
12 13.07 ЮЗ 2 20 км 10/10 300 м
[St]
+16.8 +13.7 82 +17 +17 1013.7 998.5 +16.5 +22.2
15 13.07 ЮЗ 2 20 км 10/10 300 м
[St]
+18.6 +15.6 83 +20 +20 1014.6 999.4
18 13.07 Ю 1 20 км 8/8 1200 м
[Sc]
+22.0 +16.5 71 +26 +28 душно 1012.1 996.9
21 13.07 Ю 1 20 км 10/10 1200 м
[St]
+20.6 +16.3 76 +25 +25 комфорт 1011.9 996.6
00 14.07 Ю 1 20 км 10/10 900 м
[St]
+19.0 +16.0 83 +21 +21 комфорт 1013.4 998.1 +16.8 +22.5
09 14.07 Ю 1 20 км 10/10 750 м
[St]
+17.4 +15.7 90 +18 +18 1014.2 998.9
12 14.07 штиль 0 4000 м дымка {ливн. осадки} 10/10 900 м
[St]
+18.2 +15.9 86 +19 +19 1015.4 1000.1 +17.4 +19.0 0.0
15 14.07 Ю 1 15 км слаб. морось 10/10 450 м
[Frnb]
+17.4 +16.7 96 +18 +18 1016.1 1000.8
18 14.07 Ю 2 20 км в посл. час морось 10/10 300 м
[St]
+17.2 +16.9 98 +18 +18 1013.7 998.4 0.0
21 14.07 Ю 2 20 км {морось} 10/10 300 м
[St]
+17.4 +16.1 92 +18 +18 1013.3 998.0
00 15.07 Ю 2 6000 м дождь 10/5 270 м
[St As op]
+17.0 +16.3 96 +18 +18 1014.9 999.6 +17.0 +21.9 4
09 15.07 Ю 1 20 км 10/10 300 м
[St]
+17.0 +16.2 95 +18 +18 1015.2 999.8
12 15.07 Ю 2 20 км 10/10 240 м
[St]
+17.2 +16.4 95 +18 +18 1017.9 1002.5 +17.0 +17.2 1
15 15.07 Ю 3 20 км 10/10 300 м
[St]
+18.3 +15.8 85 +19 +19 1019.8 1004.4
18 15.07 Ю 2 20 км 5/0
[Ci]
+24.4 +11.0 43 +26 +33 жарко 1018.2 1002.9
21 15.07 Ю 1 20 км 5/0
[Ci]
+23.0 +11.8 49 +25 +26 комфорт 1019.1 1003.8
00 16.07 штиль 0 20 км ясно +17.2 +10.5 65 +17 +17 1021.0 1005.6 +17.2 +25.0
09 16.07 ЮВ 1 20 км 3/0
[Ci fib]
+10.6 +8.2 85 +10 +10 1022.7 1007.3
12 16.07 ЮВ 1 20 км 8/0
[Cs]
+12.8 +8.4 75 +13 +14 1022.7 1007.3 +10.0 +17.2
15 16.07 СВ 3 20 км 5/0
[Ci fib]
+21.6 +8.0 42 +23 +31 комфорт 1022.8 1007.4
18 16.07 СВ 2 20 км 5/0
[Ci fib]
+24.8 +7.1 32 +25 +32 комфорт 1020.2 1004.8
21 16.07 В 1 20 км 6/0
[Ac As]
+21.6 +8.0 42 +23 +23 комфорт 1019.2 1003.7
00 17.07 В 1 20 км 3/0
[Ac trans]
+15.8 +9.3 65 +17 +17 1021.2 1005.6 +12.8 +25.5
09 17.07 штиль 0 20 км ясно +9.5 +7.6 88 +9 +9 1020.2 1004.8
12 17.07 ЮВ 1 20 км ясно +10.6 +7.7 82 +10 +12 1022.3 1006.6 +8.4 +15.8
15 17.07 В 2 20 км 3/0
[Ci fib]
+20.4 +7.8 44 +22 +31 комфорт 1021.7 1006.2
18 17.07 В 1 20 км 5/0
[Ci]
+24.4 +8.1 35 +25 +33 комфорт 1018.7 1003.3
21 17.07 штиль 0 20 км 5/0
[Ci]
+22.2 +9.8 45 +24 +24 комфорт 1017.2 1001.8
00 18.07 штиль 0 20 км 8/0
[Ac As]
+19.0 +11.0 60 +20 +20 1018.0 1002.5 +10.6 +25.0

 

Местоположение метеостанции Лас-Ломитас (Аргентина): широта -24.70 долгота -60.58 высота над уровнем моря 130 м.

В архиве по умолчанию представлена погода в Лас-Ломитасе за последнюю неделю. Архивные данные за месяц целиком и за предыдущие месяцы, начиная с января 2011 года, Вы можете получить, выбрав интересующий диапазон дат из раскрывающегося списка и нажав кнопку "Ввод!".


*Определитесь, кто Вы:
робот инопланетянин человек

Внимание! Время в таблицах - всемирное. Для получения местного времени необходимо прибавить поправку, которая равна -3 ч.

Смотрите также архив погоды в соседних городах и на ближайших метеорологических станциях:

Погода в Грал Бругуез (Парагвай) (177 км)
Погода в Посо Колорадо (Парагвай) (225 км)
Погода в Пресиденсиа-Роке-Саэнс-Пеньи (Аргентина) (226 км)
Погода в Пратс-Гиле (Парагвай) (241 км)
Погода в Формосе (Аргентина) (289 км)
Погода в Марискал-Эстигаре (Парагвай) (299 км)
Погода в Асунсьоне (Парагвай) (316 км)
Погода в Пиларе (Парагвай) (330 км)
Погода в Ресистенсии (Аргентина) (342 км)
Погода в Корриентесе (Аргентина) (356 км)

Пояснения к столбцам:

Ветер - указаны скорость ветра в м/с - средняя за 10 мин, порывы в срок и между сроками (в фигурных скобках) и направление, откуда дует ветер: С - северный, СВ - северо-восточный, В - восточный, ЮВ - юго-восточный, Ю - южный, ЮЗ - юго-западный, З - западный, СЗ - северо-западный.
Видимость - горизонтальная дальность видимости в метрах или километрах. При видимости от 1 до 10 км при отсутствии осадков обычно наблюдается дымка, при ухудшении видимости до 1 км и менее - туман. В сухую погоду видимость может ухудшаться дымом, пылью или мглою.
Явления - указаны атмосферные явления, наблюдавшиеся в срок или в последний час перед сроком; фигурными скобками обозначены явления, наблюдавшиеся между сроками (за 1-3 часа до срока); квадратными скобками обозначены град или гололедные отложения с указанием их диаметра в мм.
Облачность - указаны через наклонную черту общая и нижняя облачность в баллах и высота нижней границы облаков в метрах; квадратными скобками обозначены формы облаков: Ci - перистые, Cs - перисто-слоистые, Cc - перисто-кучевые, Ac - высококучевые, As - высокослоистые, Sc - слоисто-кучевые, Ns - слоисто-дождевые, Cu - кучевые, Cb - кучево-дождевые. Подробнее классификацию облаков см. в Атласе облаков (PDF).
T - Температура воздуха - температура, измеренная на высоте 2 м над землей.
Td - Температура точки росы - температура, при понижении до которой содержащийся в воздухе водяной пар достигнет насыщения.
f - Относительная влажность воздуха - влажноcть воздуха, измеренная на высоте 2 м над землей.
Te - Эффективная температура - температура, которую ощущает одетый по сезону человек в тени. Характеристика душности погоды. При расчете учитывается влияние влажности воздуха и скорости ветра на теплоощущения человека.
Tes - Эффективная температура на солнце - температура, которую ощущает человек, с поправкой на солнечный нагрев. Характеристика знойности погоды. Зависит от высоты солнца над горизонтом, облачности и скорости ветра. Ночью, в пасмурную погоду, а также при ветре 12 м/с и более поправка равна нулю.
P - Атмосферное давление - приведенное к уровню моря атмосферное давление.
Po - Атмосферное давление - измеренное на уровне метеостанции атмосферное давление.
Tmin - Минимальная температура - минимум температуры воздуха на высоте 2 м над землей.
Tmax - Максимальная температура - максимум температуры воздуха на высоте 2 м над землей.
R - Количество осадков - Количество выпавших осадков за период времени, мм. При наведении курсора мыши на число - период времени, за который выпало указанное количество осадков.
R24 - Количество осадков - Количество выпавших осадков за 24 часа, мм.
S - Снежный покров - Высота снежного покрова, см. При наведении курсора мыши на число - состояние снежного покрова и степень покрытия местности в баллах.